RH
50 51 51 49 49 49 45 41 35 27 17 9 7 6 5 6 5 4 6 12 20 31 51 75 85 79 70 63 55 48 46 43 37 32 30 29 29 29 30 32 33 33 35 40 42 43 42 47 62 79 89 92 93 95 98 99 99 100 100 99 100 100 99 99 98 94 93 97 101 99 98 96 93 93
53 52 53 53 52 52 51 49 44 38 29 17 9 7 6 6 5 5 3 5 11 19 29 49 73 85 80 69 63 56 49 48 47 42 37 33 31 29 27 25 25 24 22 22 23 24 25 35 58 78 86 88 91 93 96 98 98 99 100 100 99 100 100 100 98 97 97 99 100 100 99 98 98 95
57 56 55 55 55 55 55 54 51 47 41 30 17 9 7 6 6 5 5 3 4 10 18 27 46 71 84 79 71 65 58 52 50 49 45 40 35 32 30 26 24 22 21 19 18 17 19 25 45 71 85 88 89 90 93 96 96 95 97 99 100 100 99 100 100 99 99 100 100 100 99 99 100 97
60 59 59 59 58 58 57 57 57 55 50 42 30 16 9 7 7 6 6 5 3 4 10 17 26 44 67 82 81 74 67 61 55 52 49 46 42 37 33 30 27 24 22 21 19 17 18 19 27 47 69 82 87 87 87 89 90 90 93 95 98 100 99 99 101 100 100 100 100 100 99 97 95 94
61 61 61 62 62 61 60 60 60 60 57 52 44 30 17 9 7 7 6 5 5 4 4 10 17 25 40 62 78 82 78 72 64 58 51 47 45 42 38 34 31 28 25 23 22 20 18 18 18 23 36 53 67 74 76 75 75 78 85 90 92 96 99 99 100 100 100 100 100 100 100 99 95 94
61 61 61 63 65 65 64 63 63 64 64 61 56 47 33 19 10 7 8 7 5 5 4 4 9 16 23 37 56 73 81 81 75 68 59 52 47 44 41 39 37 34 30 26 25 24 21 19 18 17 18 23 32 42 50 54 56 60 70 82 86 87 90 95 98 99 99 99 100 100 100 100 100 98
62 63 63 65 66 67 66 66 66 67 68 68 65 60 52 38 23 12 8 8 7 6 5 4 4 8 14 22 32 48 66 77 80 77 70 61 53 47 42 40 40 39 38 34 29 27 25 23 20 19 18 17 16 19 24 30 37 41 48 62 73 75 74 79 86 91 95 96 98 100 101 100 100 100
65 65 67 69 69 68 67 67 69 69 69 71 71 69 65 57 44 28 14 9 7 7 6 5 5 4 7 12 19 28 43 59 72 77 77 73 65 57 50 44 40 41 42 42 37 33 29 27 25 23 20 20 18 17 17 17 21 25 28 37 50 58 57 56 60 67 78 88 93 96 99 100 100 100
69 69 70 73 73 71 70 70 71 71 72 73 73 74 73 70 62 50 33 19 10 7 7 6 6 5 5 6 10 16 25 38 52 65 73 76 73 68 62 54 47 43 42 43 43 40 36 32 30 28 26 24 22 20 20 18 17 18 19 21 27 35 39 38 37 40 51 68 80 84 89 95 98 99
70 71 72 74 75 73 72 72 73 73 74 75 75 76 77 76 73 67 56 40 24 13 9 7 7 6 5 4 5 9 13 20 31 44 57 67 73 74 71 66 61 54 46 43 42 42 42 39 35 33 31 29 27 25 23 22 21 19 19 18 18 20 23 24 23 23 26 38 51 57 63 73 85 94
68 70 71 72 72 72 72 73 73 74 74 75 75 76 77 78 77 74 69 60 46 30 18 11 8 7 6 6 5 5 7 10 16 25 35 46 57 66 71 71 69 65 57 51 46 42 42 42 41 39 36 33 32 30 28 26 24 23 21 20 20 19 18 18 18 18 17 19 26 30 32 36 47 65
65 68 70 71 72 72 73 74 75 76 76 75 75 75 76 77 77 76 73 70 63 51 37 24 15 10 7 7 6 6 6 6 8 12 17 25 34 46 59 67 68 68 65 60 56 50 46 44 43 43 41 38 36 33 32 30 28 27 25 24 23 22 21 20 19 19 18 17 19 21 21 19 18 27
63 66 67 69 69 70 72 73 74 75 75 75 75 76 75 74 74 74 73 72 69 63 53 42 30 21 13 9 8 7 6 6 6 8 9 13 19 25 37 50 58 64 66 65 62 59 55 51 47 45 43 41 39 37 34 33 31 31 30 29 28 26 25 24 23 22 22 21 20 20 20 19 16 14
61 64 65 64 64 65 68 69 70 72 72 73 75 76 75 73 72 72 71 71 70 67 61 54 46 35 24 18 14 9 9 9 6 6 6 8 11 14 19 29 39 49 57 62 63 62 60 58 54 49 45 42 41 40 37 35 34 34 34 33 32 31 29 28 27 26 25 24 24 23 22 21 20 18
61 64 65 64 62 63 65 66 67 69 71 73 73 74 74 74 73 72 71 69 68 67 64 60 57 48 39 36 29 17 13 13 9 8 8 6 7 8 11 16 21 27 36 45 53 58 60 60 58 54 51 47 44 42 40 38 37 36 36 36 35 34 33 31 30 29 28 27 26 26 26 25 24 23
62 64 68 69 67 66 66 67 68 69 70 70 71 73 74 75 74 72 72 70 67 66 64 63 63 56 48 47 40 28 22 21 17 14 10 7 7 7 8 10 11 13 17 23 33 44 52 56 57 56 54 52 49 47 44 43 41 39 38 37 36 36 35 34 33 32 31 30 29 28 28 28 27 27
66 65 69 72 73 72 71 73 72 72 71 70 70 72 73 75 76 73 72 70 68 66 62 59 59 57 52 52 48 39 33 27 22 19 15 10 9 8 7 7 8 9 11 12 17 25 33 40 48 52 53 53 52 50 49 47 46 45 42 40 38 36 35 35 34 33 33 31 31 30 29 29 28 27
74 72 73 74 76 74 74 76 76 75 74 71 70 72 73 74 75 75 73 71 68 65 60 58 60 60 57 55 53 47 37 29 25 23 20 20 22 24 20 14 9 9 11 11 11 15 18 21 30 39 44 47 49 50 50 49 48 48 47 45 43 41 39 38 37 35 34 33 32 32 31 30 30 29
80 78 79 80 81 78 76 75 74 74 74 72 69 70 72 73 75 76 75 72 68 63 60 61 65 65 60 60 63 58 45 38 37 36 39 52 63 63 52 33 17 14 19 20 14 11 12 13 16 23 28 31 36 41 44 46 46 46 47 46 45 45 44 43 42 40 38 36 35 34 34 33 32 32
84 81 81 83 85 85 84 82 78 74 73 72 71 69 68 69 72 76 75 73 69 64 61 62 64 63 62 66 72 69 60 61 69 73 80 90 93 89 75 52 36 40 55 59 44 22 12 11 12 14 16 16 19 25 29 33 36 38 40 41 42 43 43 43 43 43 41 41 39 38 37 37 36 36
91 86 82 83 84 86 89 90 87 82 76 73 73 72 67 65 68 75 76 73 72 70 65 64 65 63 64 70 76 77 78 87 96 98 100 102 100 99 88 65 58 74 90 95 82 50 24 18 17 13 13 13 13 14 17 18 21 24 28 31 34 35 37 37 38 39 40 40 41 40 39 39 38 39
98 94 88 86 86 88 91 92 91 88 84 78 76 76 71 64 66 77 79 74 75 77 73 72 73 72 72 77 81 82 84 92 100 101 100 100 101 102 91 74 78 96 101 100 96 70 38 32 34 25 17 15 13 12 13 13 13 14 16 19 23 25 28 30 30 32 33 34 36 37 37 38 38 39
101 100 97 94 92 92 94 96 96 95 91 85 81 81 78 69 67 77 82 78 79 84 83 82 82 81 82 86 87 88 86 86 92 97 96 96 101 100 89 80 86 98 99 99 100 83 61 63 71 59 40 26 17 15 14 12 12 12 10 11 13 14 17 20 22 24 26 28 30 31 32 33 34 35
101 102 103 103 101 97 95 98 100 100 98 94 89 85 83 78 76 78 78 75 77 80 80 82 83 82 84 86 84 86 86 82 86 91 87 88 97 96 88 83 85 91 97 100 101 95 89 92 98 92 77 56 38 35 33 25 20 19 15 13 12 11 11 12 13 16 18 21 24 26 28 29 29 29
102 103 103 104 104 101 99 99 101 101 101 100 97 92 86 85 86 85 79 76 76 75 73 75 78 77 79 81 79 79 80 79 84 90 86 83 87 87 83 82 82 87 97 102 100 99 100 100 99 101 99 82 64 62 65 57 48 41 34 26 20 18 16 12 10 10 11 13 16 19 22 25 25 26
98 101 102 103 104 102 101 100 100 101 101 100 99 98 95 93 94 93 89 86 82 77 71 70 71 71 73 76 79 80 79 77 80 86 86 84 82 80 79 77 75 81 94 102 101 99 100 100 99 100 101 93 79 74 78 83 83 79 70 57 45 37 33 24 17 13 11 9 10 11 13 16 18 20
87 91 93 96 99 100 99 98 97 99 102 100 98 99 100 100 100 97 95 92 88 85 81 75 71 69 69 69 72 75 77 77 78 81 82 82 79 78 77 75 71 74 84 95 101 101 99 99 101 101 100 99 92 83 82 91 99 100 95 88 78 68 57 44 32 25 20 15 12 9 9 9 10 12
79 82 86 90 93 95 97 96 94 95 99 102 101 100 99 99 99 98 96 95 94 93 92 88 82 78 76 73 71 73 76 79 81 82 83 83 79 75 74 73 69 68 72 83 94 100 100 98 99 100 98 96 93 89 87 90 95 94 93 92 90 84 76 64 53 46 38 30 22 15 11 9 8 8
81 83 86 88 90 91 93 94 93 93 96 99 101 102 102 100 99 99 98 98 98 96 96 96 95 92 91 89 86 85 88 88 86 85 85 85 83 78 72 68 65 64 65 71 81 90 96 96 95 95 93 87 82 80 80 80 80 78 76 74 74 76 77 74 70 66 57 47 38 28 20 14 10 9
87 86 84 84 86 88 90 92 92 92 94 97 99 100 101 101 101 100 99 99 98 96 96 96 97 97 100 100 99 99 100 98 95 93 91 90 88 85 78 68 62 61 63 66 71 79 86 89 91 92 89 82 76 73 72 69 66 65 63 59 56 58 62 66 71 72 66 57 49 41 31 22 16 12
93 90 85 82 83 87 89 90 90 91 94 98 99 98 97 98 100 101 102 101 99 98 98 97 97 98 100 101 101 101 102 101 100 99 99 97 94 92 87 77 65 59 61 64 66 70 76 80 83 84 83 79 75 72 70 65 59 57 57 54 48 46 48 55 65 72 70 61 54 48 39 30 23 19
97 95 89 83 83 87 90 90 89 91 95 99 100 99 97 96 98 100 101 102 102 101 101 100 99 99 100 100 100 100 101 102 101 101 101 100 98 97 94 85 73 64 63 64 63 65 70 75 76 76 74 72 71 69 66 62 57 55 55 51 45 42 42 46 59 72 73 66 63 60 52 41 35 32
98 96 91 85 84 88 91 92 93 95 98 100 101 100 98 96 96 98 100 101 100 97 95 97 98 99 100 101 101 100 99 98 98 101 102 101 100 100 95 89 83 75 69 66 66 66 68 70 72 72 70 67 65 64 61 59 57 56 55 52 46 44 42 44 59 76 78 72 75 80 74 63 55 49
95 95 92 87 86 88 91 95 98 99 101 103 103 101 98 95 94 96 97 96 92 90 91 93 95 95 96 98 99 101 101 96 92 95 100 101 102 100 94 90 90 85 77 72 71 72 71 69 68 68 66 64 63 62 61 61 61 60 58 54 50 47 46 51 67 83 86 83 86 94 94 87 79 69
93 97 95 89 88 93 96 98 99 100 101 104 104 102 98 94 93 93 94 94 91 89 88 87 85 83 83 86 90 96 101 100 94 93 96 100 103 101 95 92 93 91 86 80 77 77 76 71 66 66 66 63 61 62 64 66 68 68 64 61 60 59 56 62 76 86 88 88 93 98 100 99 96 91
92 100 98 92 92 97 100 100 100 101 101 102 104 103 100 96 93 92 95 97 93 86 80 77 80 84 88 92 94 95 98 101 99 97 99 101 102 100 96 96 97 94 89 86 86 88 89 85 82 82 79 70 60 61 70 77 80 79 73 71 73 74 71 76 86 91 91 91 92 94 97 99 100 100
94 103 101 96 96 100 102 101 100 101 101 101 102 104 104 101 96 94 97 97 90 82 76 76 84 92 95 95 95 94 97 100 101 100 101 103 101 97 96 99 100 95 89 89 94 98 100 99 98 98 96 87 75 74 82 89 91 91 87 84 86 88 89 91 93 93 96 98 95 92 94 96 97 99
97 103 102 99 100 103 103 103 102 101 101 102 102 104 105 104 99 98 99 96 88 82 79 79 84 89 90 89 87 87 92 99 101 99 100 102 100 97 98 102 101 95 92 96 101 102 101 101 101 101 102 96 86 83 88 93 96 99 98 95 96 99 100 99 96 92 96 101 101 98 97 97 98 99
98 103 102 102 103 104 104 104 104 102 101 102 103 103 105 104 102 101 100 97 90 83 79 78 80 83 87 93 94 90 90 96 100 100 99 99 98 99 101 103 102 98 98 101 102 102 101 99 98 99 98 92 86 88 95 98 100 102 100 98 100 102 101 100 98 97 98 101 102 101 100 99 99 100
101 102 101 102 103 102 102 104 104 104 103 103 103 103 104 104 103 102 101 101 94 83 78 84 89 89 91 97 101 99 97 98 100 101 102 100 100 101 102 103 102 102 102 102 101 101 100 97 96 97 96 92 90 95 100 99 98 101 101 100 100 101 100 100 100 100 100 101 100 100 100 100 100 100
102 101 101 104 104 101 101 102 103 104 104 103 103 104 103 103 103 101 101 103 99 87 83 93 101 100 97 98 99 100 101 101 99 100 102 101 100 101 101 101 101 102 102 100 99 99 99 99 100 102 100 97 94 97 100 98 97 99 101 100 100 100 100 101 102 102 101 101 101 101 101 100 100 100
101 100 101 103 103 100 100 102 103 103 104 104 103 104 104 104 104 102 101 102 102 94 89 94 98 98 99 100 100 99 100 101 100 100 100 100 100 100 100 100 101 102 100 98 97 99 100 101 102 103 102 100 99 100 101 100 98 99 101 100 101 101 100 100 101 101 100 99 99 98 99 99 98 99
101 100 100 101 101 100 100 101 101 101 103 104 104 103 103 104 104 104 101 101 102 98 94 95 96 95 95 99 101 100 99 100 100 100 100 100 100 99 100 101 102 102 101 99 100 102 102 100 99 100 101 100 100 100 101 100 99 100 101 101 101 101 100 101 100 94 90 91 94 96 98 99 97 97
100 100 100 100 101 101 100 100 100 100 103 105 104 102 102 103 104 104 101 101 102 101 97 97 98 97 95 97 101 101 100 100 100 100 100 101 101 100 101 101 101 101 101 101 101 102 101 99 99 100 100 100 100 100 101 101 101 100 100 101 103 102 99 98 95 88 83 85 89 94 98 99 99 99
100 100 100 101 101 101 100 100 100 100 103 104 102 101 101 102 102 104 102 100 102 102 100 100 102 101 97 95 96 99 100 100 100 100 99 97 96 97 100 102 101 101 102 100 99 100 101 101 101 100 100 100 101 100 100 100 100 100 100 100 102 102 99 95 93 90 87 87 90 94 98 98 99 100
Wind_Speed
33 34 35 36 36 37 38 38 37 38 38 40 42 44 47 51 55 58 62 65 65 64 64 66 69 71 71 70 69 67 65 63 62 62 60 58 57 57 58 58 58 58 58 58 59 60 61 63 65 65 63 60 58 57 56 53 48 44 42 41 41 42 44 45 44 43 42 40 37 36 36 34 32 32
31 32 33 34 36 37 38 39 38 38 38 38 39 41 43 46 50 53 57 61 64 65 65 64 66 69 72 72 72 71 69 67 64 63 62 61 59 59 59 59 59 59 58 58 59 60 61 63 66 67 66 64 62 60 58 57 55 50 46 43 40 39 40 43 45 46 45 42 40 39 38 37 36 35
30 31 31 32 33 35 36 38 39 39 38 37 37 39 41 43 45 48 52 57 59 61 65 66 65 66 70 73 73 73 72 71 69 67 65 64 62 61 60 60 60 60 59 59 59 59 60 61 64 67 68 67 65 63 60 59 58 56 52 48 44 41 39 39 42 46 46 44 43 42 41 40 38 37
28 29 30 30 31 32 33 35 37 38 38 37 37 37 39 41 42 44 47 51 54 56 61 66 66 65 67 70 73 74 74 74 73 71 69 67 65 64 62 61 61 61 61 60 60 60 59 60 62 64 67 68 67 65 63 61 60 59 57 54 50 46 42 40 40 43 44 44 44 42 42 42 42 40
27 27 28 29 29 30 31 32 33 35 37 37 37 36 37 38 40 42 43 46 49 52 55 61 65 65 66 67 70 73 75 75 75 74 72 70 68 67 65 64 63 62 62 62 61 61 60 60 60 62 64 66 67 67 65 63 61 60 59 58 55 51 48 46 44 41 41 42 44 44 42 42 44 43
25 25 25 26 27 29 30 30 30 31 33 35 37 36 36 36 37 39 41 42 44 47 50 54 60 64 66 66 67 70 73 75 75 76 75 74 72 70 68 67 65 64 64 63 63 62 62 61 61 61 61 62 64 65 65 64 63 60 59 59 58 54 52 51 50 46 43 42 43 44 43 42 42 40
22 23 23 23 25 26 27 28 28 29 30 31 34 36 36 36 36 37 39 40 41 43 45 47 52 58 63 66 66 67 70 73 75 76 76 76 75 74 72 71 69 67 66 65 65 64 63 62 62 61 61 61 61 62 63 64 63 61 60 59 59 56 54 53 53 51 48 46 45 45 44 42 41 38
21 21 21 22 23 24 25 25 26 27 28 29 30 33 35 36 37 36 36 38 39 40 40 42 45 50 56 61 65 66 68 70 73 75 76 77 77 77 75 74 73 71 69 68 67 66 66 65 64 63 62 62 61 61 61 61 62 62 60 59 59 58 56 54 52 51 51 51 50 49 46 44 43 41
19 19 19 20 22 23 23 23 24 25 26 27 28 29 32 34 36 37 36 36 37 38 38 38 40 43 48 54 60 63 66 68 69 72 74 76 77 78 78 78 77 75 74 72 70 69 68 67 66 65 64 64 63 62 62 61 61 61 61 60 59 59 58 55 53 51 51 52 53 52 51 47 46 45
17 17 17 18 19 21 21 22 23 24 24 25 26 27 28 31 33 36 36 36 35 35 36 36 36 38 42 46 52 56 61 64 67 68 71 73 75 77 78 79 79 79 78 76 74 72 71 69 68 68 67 66 65 65 64 63 62 61 61 60 60 59 59 57 55 53 52 52 52 52 52 50 49 50
15 15 15 16 17 18 19 20 21 23 23 24 24 25 26 27 30 32 34 36 35 34 33 33 32 33 36 39 43 47 52 58 63 65 67 69 71 74 76 77 79 80 80 80 78 77 75 73 72 71 70 69 68 67 66 65 64 63 62 61 61 60 59 58 57 55 53 53 52 52 50 49 49 51
14 14 14 14 14 15 16 17 19 21 22 23 23 23 24 25 27 29 31 33 34 34 32 30 29 29 30 33 36 38 42 50 55 59 62 66 67 69 73 75 77 78 80 81 81 80 79 78 76 75 73 72 71 70 69 68 67 66 65 64 63 62 61 60 59 57 55 54 53 53 51 49 48 49
13 13 13 13 13 13 14 15 17 19 21 22 22 22 23 23 23 25 27 29 31 32 31 29 26 25 24 26 29 32 34 40 45 49 56 62 64 65 69 72 74 76 77 79 81 81 82 82 81 79 77 76 75 74 73 71 70 69 68 67 66 65 64 62 61 60 58 57 55 54 54 52 50 49
12 12 13 13 13 13 13 14 16 17 19 19 19 19 20 20 20 21 23 25 27 29 29 28 26 23 21 20 24 26 27 31 36 41 48 56 59 61 66 69 70 72 74 76 78 79 81 82 83 83 81 80 78 77 76 75 73 72 71 71 70 69 67 66 65 64 63 61 60 58 57 56 54 52
11 10 11 12 12 11 12 13 13 14 15 16 16 16 17 17 17 18 19 21 23 24 26 26 24 22 19 17 20 22 23 26 30 33 39 47 52 56 62 65 66 67 70 73 75 77 79 81 82 83 83 82 82 81 79 78 77 77 76 75 74 73 72 70 69 68 67 66 64 63 61 60 59 57
11 10 9 11 11 11 11 11 12 12 13 14 13 14 14 15 15 14 15 17 18 20 21 22 21 20 17 17 18 20 21 23 26 28 33 39 44 48 54 60 61 61 63 68 72 75 76 78 81 82 82 82 82 82 82 81 81 81 80 79 78 77 76 75 74 73 71 70 69 68 66 65 64 62
12 10 9 9 10 10 10 11 12 12 13 13 12 12 12 12 12 12 12 13 14 16 17 17 16 16 16 16 17 18 20 21 23 25 28 31 35 39 44 50 53 53 56 62 68 72 73 75 78 80 80 80 81 81 81 82 82 82 82 82 82 81 80 79 78 77 76 75 74 73 71 70 68 67
13 12 10 10 10 10 9 10 11 11 12 12 11 11 11 11 10 9 9 10 11 13 13 11 11 12 13 13 14 17 19 21 21 22 22 23 26 29 32 38 44 46 48 54 60 66 69 70 74 77 78 78 79 79 79 80 80 81 82 82 82 82 82 82 81 80 80 79 78 77 76 74 73 72
13 13 12 11 11 11 11 11 11 10 10 10 10 10 10 10 9 8 8 8 9 10 10 9 8 10 11 11 13 16 17 17 17 17 18 18 20 22 25 29 34 36 38 42 49 57 63 65 69 74 74 74 76 78 78 79 79 79 80 80 81 81 82 82 82 82 81 81 80 79 79 78 77 76
13 13 13 13 12 12 12 12 13 12 11 10 9 9 9 9 8 8 8 9 9 9 9 9 9 11 13 14 15 15 14 14 14 14 17 18 18 20 22 23 25 25 25 29 36 46 54 57 61 67 69 68 71 73 75 76 77 78 78 79 79 80 80 81 81 81 81 81 81 80 80 79 79 78
14 13 13 13 13 12 12 13 14 14 13 11 9 8 9 8 7 7 8 8 8 9 9 9 11 14 15 15 17 17 15 14 13 13 16 18 16 17 19 20 20 19 18 19 24 34 43 46 49 56 60 62 65 67 68 69 71 73 75 77 79 79 79 80 80 80 81 81 81 81 80 79 79 78
15 15 14 13 13 12 12 13 15 15 15 13 10 9 9 8 6 6 8 7 7 8 9 10 12 15 16 17 19 20 19 18 15 14 16 16 15 18 19 19 18 17 15 14 17 23 29 31 34 41 46 51 57 60 60 62 64 66 70 73 75 77 79 80 80 80 80 80 80 80 80 80 79 78
15 15 15 14 13 12 12 13 14 16 17 16 13 10 11 9 5 6 10 10 9 10 11 12 14 16 18 19 21 23 22 22 21 18 18 18 19 21 20 18 17 15 12 12 13 16 19 19 21 26 31 38 44 48 50 53 56 59 62 65 68 72 74 77 79 80 81 81 81 81 81 80 79 79
14 13 13 13 13 12 12 12 14 15 17 18 17 14 12 10 8 10 13 13 13 14 14 14 15 17 20 22 23 25 25 24 24 22 20 19 20 21 19 19 18 15 12 14 15 14 14 14 13 15 20 26 31 34 37 41 45 49 53 56 59 62 66 70 73 76 79 81 82 83 82 82 81 80
13 12 11 11 12 13 12 12 12 14 16 19 20 19 15 11 10 14 16 15 16 17 16 16 17 17 19 21 22 24 25 25 24 22 21 20 21 21 21 20 20 16 14 17 17 15 14 15 14 14 16 19 22 25 27 30 33 37 41 45 49 52 56 61 65 70 74 77 80 82 83 84 83 83
12 12 12 12 13 14 13 12 12 12 14 18 20 21 19 15 13 15 17 18 20 20 19 18 19 18 19 20 20 21 22 22 22 21 21 21 22 22 22 22 22 19 16 17 18 16 16 18 18 17 17 17 19 21 22 23 25 27 30 34 38 41 45 51 56 61 66 70 74 77 80 82 83 84
13 13 13 13 14 15 15 15 14 13 13 16 18 20 20 20 18 18 18 19 21 22 22 22 21 21 21 21 21 21 20 20 20 21 21 22 24 25 25 24 25 23 20 19 19 18 18 18 19 19 18 18 19 20 20 21 22 23 24 26 28 31 35 39 44 49 54 60 65 69 73 76 79 81
15 15 15 15 15 16 16 16 16 14 14 15 17 18 20 20 21 21 20 20 20 21 23 24 24 23 23 23 22 22 21 21 22 22 23 24 26 28 28 28 27 27 25 23 21 20 20 19 18 18 18 18 19 19 19 20 21 21 21 22 23 25 27 29 32 37 41 47 54 59 64 69 72 75
18 18 17 17 17 17 17 17 17 16 15 15 16 17 18 19 20 21 22 22 22 22 22 23 23 24 24 24 24 23 24 26 27 26 26 27 28 30 31 31 31 30 28 26 24 23 22 21 19 18 18 17 17 17 18 18 19 19 19 19 20 22 24 24 26 28 31 36 41 48 54 59 63 66
20 19 19 18 18 17 17 17 17 16 15 16 16 17 17 18 19 21 22 23 24 24 24 23 24 24 25 25 25 25 27 29 29 29 30 30 30 30 32 33 33 32 30 29 28 26 25 24 22 21 19 19 18 17 17 17 17 17 18 18 19 20 22 23 23 24 27 30 34 39 44 50 54 58
21 21 20 19 18 18 17 17 17 16 15 15 17 17 17 17 18 19 21 23 24 26 26 26 26 26 26 27 27 27 28 30 30 30 30 31 32 32 32 33 34 34 33 32 31 30 28 26 25 23 22 21 20 19 19 19 18 18 18 19 19 20 21 22 22 23 24 26 29 33 37 42 46 50
23 22 21 20 19 18 17 17 16 15 14 15 17 17 17 17 17 18 19 21 23 24 26 27 28 28 29 29 29 28 28 29 30 31 31 31 31 31 32 33 33 34 33 33 33 32 30 29 28 26 24 23 23 23 22 21 20 20 20 20 20 21 22 23 23 22 21 22 24 28 32 36 40 43
25 23 21 20 19 18 16 15 15 14 14 15 16 17 17 17 17 17 18 20 22 23 24 25 25 26 26 27 28 28 27 27 27 29 31 32 31 30 31 32 32 32 33 33 33 32 32 31 30 29 27 26 26 25 24 23 22 22 22 22 22 22 23 23 23 21 20 19 19 20 23 27 32 36
26 23 22 20 19 17 16 14 14 14 15 15 16 17 17 17 17 17 18 19 19 19 20 20 20 20 21 22 23 26 27 26 25 26 28 30 30 31 31 30 30 30 30 30 31 31 32 32 32 31 30 29 28 27 26 24 24 23 24 24 24 23 23 23 22 20 18 16 15 16 17 19 22 26
25 23 22 21 19 17 15 14 14 14 15 15 16 17 16 16 17 17 16 15 15 15 16 16 16 17 17 18 19 21 24 25 25 25 25 26 27 29 29 28 27 27 27 28 28 30 32 33 33 32 31 31 30 29 27 26 25 24 25 25 24 23 23 22 21 19 17 15 15 16 17 18 19 21
24 22 22 21 19 17 16 15 14 14 15 15 16 16 16 15 16 16 14 13 12 13 13 13 13 14 15 16 17 17 19 22 23 24 24 24 24 26 26 25 25 26 26 25 25 27 30 31 31 31 31 31 32 30 28 26 25 24 24 24 24 23 22 21 20 18 16 15 16 18 20 20 20 20
23 22 23 21 19 17 16 15 15 15 15 16 16 16 16 15 15 14 14 12 11 11 11 10 10 11 12 13 14 14 15 17 19 21 22 23 23 24 24 23 24 25 24 21 21 23 25 26 27 28 29 30 30 28 25 23 23 23 22 23 22 21 20 20 20 19 18 17 16 18 20 21 22 22
23 23 23 21 19 18 17 16 16 16 16 16 16 16 16 15 14 13 13 13 12 11 10 9 7 7 8 8 8 9 11 13 15 18 20 22 22 23 23 22 23 23 21 19 19 20 21 22 23 25 25 25 24 21 19 19 20 20 20 20 21 20 20 21 21 21 20 19 18 17 18 19 21 22
24 24 24 22 20 19 17 16 16 16 16 16 15 15 16 15 14 13 13 14 13 12 10 8 6 6 7 6 7 8 10 12 13 15 17 20 20 20 20 21 22 21 20 19 18 18 19 20 22 22 22 21 19 17 16 17 19 19 19 18 19 20 21 22 22 20 19 19 19 18 18 18 18 19
25 25 25 23 21 19 18 17 17 17 16 16 15 15 15 15 14 13 13 14 15 13 10 7 7 8 9 9 9 9 10 11 12 12 14 16 17 17 18 19 20 19 19 18 17 17 19 20 20 20 20 20 19 18 17 17 18 20 21 19 19 19 21 22 21 19 18 18 18 18 18 18 18 17
27 27 25 23 21 20 19 18 17 17 16 16 15 15 15 15 15 15 14 15 16 15 11 9 9 10 11 11 12 10 9 10 11 12 13 13 14 15 17 18 18 19 19 18 17 17 18 19 20 19 19 19 19 20 20 19 18 20 22 23 21 20 20 21 21 20 19 18 18 18 18 18 18 17
28 27 25 23 22 21 20 18 17 16 16 16 16 15 15 15 16 17 16 16 17 17 15 12 11 11 10 12 12 11 10 10 11 12 13 12 12 14 16 18 19 19 19 20 19 19 19 20 20 19 19 20 20 21 21 21 20 20 22 24 24 22 21 21 22 22 20 19 18 19 19 19 19 19
28 26 25 24 23 22 21 19 17 16 16 16 16 15 15 16 16 17 18 18 17 18 18 16 14 11 10 11 12 12 12 11 11 11 12 13 15 16 16 17 18 18 18 19 20 20 21 22 21 20 20 21 21 21 21 22 23 23 24 25 26 25 23 22 22 23 21 19 18 19 19 19 20 19
28 27 26 25 24 23 21 19 18 17 16 16 15 15 15 16 16 17 19 19 18 18 19 18 16 13 11 12 13 14 14 13 13 12 12 13 15 15 14 14 15 16 17 17 18 19 21 22 22 22 22 21 22 22 22 21 22 24 25 26 28 28 26 25 24 23 21 19 18 18 19 19 19 18
28 28 27 25 25 24 22 20 19 17 16 16 15 15 15 15 16 17 18 20 20 18 19 19 19 16 14 14 15 16 15 14 14 15 15 14 14 13 13 13 13 14 15 15 16 17 19 20 22 23 23 23 23 22 21 19 19 20 22 25 28 29 29 27 26 24 22 20 19 19 19 19 19 18
Wind_Direction
270 269 267 266 264 262 261 261 262 262 263 262 261 260 259 258 255 251 245 239 234 230 229 228 229 230 230 230 230 231 231 231 231 232 232 230 227 227 227 227 227 228 228 228 229 229 228 228 229 231 234 234 234 235 233 229 226 221 218 218 219 220 220 217 214 214 214 214 214 215 215 214 215 221
269 268 267 265 264 263 261 259 259 260 261 261 261 260 259 258 257 255 250 243 238 235 232 229 228 229 230 230 229 230 231 231 232 232 232 232 230 227 226 226 225 225 226 226 226 227 227 227 227 228 232 234 234 235 236 235 232 227 222 221 219 219 221 220 217 216 215 215 216 216 216 216 214 215
270 269 268 267 266 265 263 260 258 258 259 259 260 260 259 258 258 257 254 247 241 238 236 232 229 228 229 230 230 229 230 230 231 232 232 233 232 230 228 226 225 224 225 225 225 226 226 226 227 227 229 232 234 235 235 237 237 233 228 226 223 220 220 222 222 220 219 219 219 219 218 218 216 216
272 270 269 268 267 266 265 263 260 258 257 257 259 260 258 258 257 257 257 252 245 242 238 235 232 229 228 229 230 230 230 230 231 231 232 233 233 232 231 228 226 225 224 225 225 225 225 225 226 226 228 230 232 234 235 236 238 237 235 233 230 225 223 224 223 222 223 223 223 224 223 220 219 219
273 271 271 269 269 268 266 266 264 261 258 257 257 258 258 257 256 256 257 255 250 246 241 237 234 232 230 229 229 230 230 230 230 231 231 232 233 233 233 231 229 227 226 225 225 225 224 224 225 226 227 228 230 233 235 236 237 238 238 237 236 234 230 228 227 226 225 224 224 226 226 224 224 225
274 274 273 272 270 269 267 267 266 265 262 259 256 256 257 258 256 255 256 256 254 250 245 240 237 234 232 230 228 229 230 230 231 231 231 232 233 233 234 233 233 231 229 227 227 226 225 224 225 225 226 227 228 230 232 234 235 236 237 238 239 238 237 235 234 233 231 227 225 224 224 224 227 230
276 275 276 276 274 271 269 268 268 267 265 263 260 257 256 257 257 255 254 255 255 253 249 245 240 237 235 233 230 229 230 230 231 231 231 231 232 233 234 234 234 234 232 231 230 228 227 226 225 225 226 227 228 229 230 232 233 235 235 236 238 239 239 239 239 238 236 233 229 225 224 223 223 226
276 275 276 276 276 274 272 271 270 269 268 267 264 261 257 256 256 256 255 254 254 254 251 248 244 240 237 235 233 231 230 230 230 231 231 231 231 232 233 234 235 235 235 234 233 232 230 229 228 227 227 227 228 229 230 230 232 233 234 234 236 237 238 239 240 241 240 238 236 232 228 226 225 226
276 275 274 275 275 275 275 274 272 271 270 269 268 265 262 258 256 255 255 254 254 253 252 250 247 244 241 238 236 234 232 231 230 230 231 231 231 231 232 233 234 235 236 236 235 234 233 232 231 230 230 229 229 229 230 231 231 232 233 234 234 235 236 237 238 239 240 241 241 241 238 234 231 231
281 276 274 273 274 275 275 274 272 271 271 271 270 269 266 262 258 255 253 253 253 253 253 251 248 247 245 241 239 237 236 234 232 231 230 231 232 232 232 233 234 235 236 236 237 236 236 235 234 234 233 233 232 232 231 232 232 232 233 233 234 234 235 235 236 236 238 240 241 243 244 242 239 238
287 280 275 273 274 275 275 274 274 273 274 273 273 272 270 266 262 257 254 252 252 253 254 253 251 248 247 245 242 240 239 238 235 233 232 231 231 232 232 232 233 234 235 236 237 237 237 237 237 236 236 235 235 235 234 234 233 233 233 234 234 235 235 235 235 235 236 237 239 241 243 244 244 244
292 287 281 276 275 275 275 275 275 275 275 275 275 275 273 269 264 260 256 252 251 251 252 254 253 250 248 248 246 243 241 240 238 237 236 233 232 232 232 232 233 234 235 236 237 237 238 238 238 238 238 237 237 237 237 236 236 236 236 236 236 236 236 236 237 236 236 236 238 239 240 242 243 244
298 294 290 285 280 278 277 277 277 277 277 278 278 277 275 272 267 261 257 254 251 250 251 252 253 251 248 246 246 245 242 240 238 239 239 236 234 233 233 232 233 233 234 235 236 237 238 238 239 239 239 239 239 238 238 238 238 238 239 239 239 239 238 238 238 238 238 238 238 239 240 241 242 243
300 300 300 298 293 287 284 282 281 282 282 282 281 279 277 276 272 264 257 254 252 251 251 251 251 251 247 244 245 244 241 238 236 237 239 237 236 235 234 233 233 234 234 235 236 237 238 239 239 239 239 239 240 240 240 240 240 241 241 242 242 242 241 241 241 241 241 240 240 240 240 241 242 243
298 302 306 307 305 301 297 293 289 288 287 287 286 284 281 280 276 268 260 255 253 252 252 251 252 252 246 240 240 239 237 236 235 234 235 237 237 237 236 234 234 235 235 235 235 236 237 239 239 239 239 239 240 241 241 241 242 242 243 243 244 244 244 244 243 243 243 242 242 242 242 242 243 243
292 298 305 311 313 313 313 310 304 299 295 293 292 290 288 285 280 273 264 258 255 254 253 251 250 249 244 236 234 233 231 231 231 231 232 235 237 237 237 236 235 236 237 237 236 236 236 238 239 239 239 239 240 240 241 242 243 243 244 244 245 245 246 246 245 245 245 245 245 244 244 244 245 245
284 291 297 302 308 312 316 317 315 312 307 302 299 297 295 290 282 274 264 258 256 254 253 251 246 242 238 233 229 224 223 224 227 230 232 235 236 237 237 237 236 236 237 238 238 237 237 238 239 239 240 240 240 240 241 242 243 243 244 244 245 246 246 247 247 247 247 247 247 247 247 247 247 247
278 283 287 291 295 299 304 307 309 311 311 310 309 304 300 294 284 273 262 255 251 249 251 250 243 238 232 226 221 218 218 220 223 227 230 232 233 235 235 235 236 237 238 239 240 240 239 239 239 239 240 241 241 241 241 241 242 243 243 244 245 245 246 247 247 247 248 248 248 249 249 249 249 249
278 278 279 281 284 288 294 296 299 303 306 309 313 310 304 299 290 273 254 244 239 237 240 236 226 224 216 206 208 213 215 216 217 219 220 220 223 229 231 233 235 236 238 239 241 241 240 241 241 240 240 241 242 241 241 241 241 242 243 243 244 244 245 246 246 247 247 248 248 249 249 250 250 250
279 277 276 277 278 281 286 289 292 297 300 303 309 307 302 302 301 286 259 243 233 226 227 219 208 209 204 195 198 206 207 202 201 204 206 208 216 224 229 232 230 228 229 236 242 243 241 242 242 241 241 243 243 243 242 242 242 242 242 243 243 243 244 244 245 246 246 246 247 247 248 249 250 250
278 277 276 276 276 278 279 281 283 287 291 294 297 297 292 293 300 294 272 250 230 219 216 206 199 203 203 194 192 197 194 184 187 206 210 207 216 227 229 227 220 214 218 229 241 245 244 244 245 243 243 244 244 244 245 245 244 244 243 243 243 243 243 243 244 244 245 245 246 246 246 247 247 248
272 276 278 277 277 277 276 277 280 284 287 287 285 283 281 280 281 277 270 255 225 212 208 198 194 198 201 197 192 192 191 183 190 220 224 211 217 229 226 218 212 212 218 226 239 247 246 245 245 243 242 243 244 245 246 246 246 246 245 244 244 244 243 243 243 243 244 244 245 245 245 245 245 246
264 270 274 278 279 278 275 275 278 281 285 287 285 275 270 270 258 244 250 246 230 220 214 204 199 197 199 200 197 196 197 192 195 213 218 211 218 227 222 214 214 219 219 216 226 237 238 239 242 239 236 237 239 241 243 244 246 247 246 246 246 246 245 245 244 244 244 244 244 244 244 245 244 245
256 261 266 272 276 278 278 278 278 280 282 285 286 279 270 264 247 238 242 242 237 234 228 220 215 208 205 207 207 205 204 202 202 209 212 213 222 227 222 218 221 222 212 204 212 223 225 230 237 236 233 232 231 234 238 240 242 245 246 247 247 247 247 247 246 246 245 244 244 244 244 244 244 244
249 255 263 270 275 278 280 281 282 282 281 280 281 280 278 269 249 243 246 247 244 243 239 233 231 226 219 218 218 215 214 211 210 214 217 220 225 227 224 223 225 223 211 205 213 222 222 222 225 224 228 230 226 225 230 234 238 241 243 245 246 247 247 248 248 248 247 247 246 245 245 244 244 244
245 252 261 268 275 279 281 281 283 284 283 279 277 277 278 274 260 249 246 245 246 247 247 242 240 237 233 231 229 228 225 221 219 222 226 228 231 231 230 228 228 226 219 215 222 230 227 223 224 222 222 225 224 222 223 226 232 237 240 243 245 246 248 248 249 249 249 249 248 248 247 246 245 245
246 252 258 264 270 276 279 280 281 283 284 282 278 276 273 268 264 257 251 246 246 247 250 250 248 245 242 240 238 237 236 232 230 231 233 234 235 235 235 233 231 229 228 226 228 232 230 225 223 222 222 222 223 224 222 221 225 230 235 240 244 246 248 249 250 250 250 250 250 249 249 248 247 247
251 253 258 263 267 272 275 276 278 280 283 285 282 277 271 266 263 261 259 256 253 250 250 251 252 252 250 248 247 246 246 245 242 239 236 235 235 236 235 235 233 230 230 231 231 233 233 230 226 225 226 227 226 225 223 222 224 228 232 236 240 244 247 250 251 251 251 251 251 250 249 249 249 248
257 258 261 264 266 268 269 270 273 276 282 287 286 281 274 269 265 262 261 261 259 256 253 252 252 253 252 251 250 249 250 250 247 244 241 237 235 235 235 234 233 231 231 232 233 235 236 235 235 235 234 233 232 230 229 229 229 233 237 238 239 243 246 248 251 254 254 253 251 250 249 248 248 248
259 261 264 267 269 269 268 267 267 270 277 285 287 284 279 272 267 263 260 260 259 259 258 256 254 253 252 251 247 243 243 244 246 245 245 242 239 238 236 234 233 233 233 233 234 235 237 238 240 241 240 241 242 243 243 242 239 241 245 246 246 249 250 249 251 257 261 260 256 251 247 246 245 245
259 261 265 268 270 271 270 267 265 266 272 278 282 283 282 277 271 266 262 260 259 259 259 259 258 257 256 255 252 246 242 241 242 242 243 244 242 241 239 236 233 231 232 234 235 235 236 238 241 243 243 245 247 250 253 253 251 253 256 256 257 258 258 256 254 258 267 269 263 254 248 244 242 241
258 260 263 266 269 270 270 268 268 268 271 276 278 280 281 280 277 272 266 263 261 260 259 259 259 258 258 258 258 255 251 246 242 239 239 241 243 243 241 239 235 231 231 233 235 236 237 238 241 243 245 246 248 250 253 256 258 259 261 262 264 266 267 265 262 263 271 275 267 257 249 243 240 238
256 258 261 264 267 268 268 270 273 275 276 278 280 281 283 283 280 275 270 266 265 264 262 260 259 259 258 257 256 255 253 250 245 240 237 238 240 242 242 240 236 233 231 231 233 237 238 239 241 243 245 247 249 250 252 255 258 260 261 263 265 267 269 269 267 268 273 275 270 263 256 248 243 240
254 257 260 263 265 266 269 273 277 278 278 279 280 281 283 284 283 279 274 269 266 264 262 261 261 261 260 258 255 252 251 249 245 240 237 237 237 239 240 240 237 235 232 231 231 234 237 240 242 243 245 247 249 251 252 253 254 257 260 263 265 267 270 269 265 265 270 271 269 270 268 259 252 248
251 255 258 261 263 265 268 273 275 277 277 277 277 279 282 285 286 283 275 267 262 259 259 260 261 261 260 259 258 253 248 244 242 238 236 235 235 236 237 238 236 234 232 230 229 231 235 238 240 243 244 245 247 249 251 252 252 252 255 260 263 264 266 265 261 258 261 260 256 257 260 256 250 249
248 250 254 258 261 262 265 270 273 275 276 274 274 277 282 288 291 286 274 263 259 258 259 260 261 261 260 259 260 257 248 240 238 235 231 231 232 233 233 233 232 229 228 228 228 228 231 233 236 239 240 242 245 246 247 249 249 249 250 254 256 257 258 258 256 253 253 254 251 249 251 249 244 241
245 246 250 254 256 258 262 267 270 273 274 273 273 275 278 285 291 285 271 261 258 257 257 259 262 264 263 260 259 255 244 235 231 227 223 225 229 230 229 228 225 223 225 226 224 222 223 226 229 231 233 236 240 242 242 244 244 244 245 246 247 247 246 246 247 247 246 249 251 251 251 252 250 246
241 241 246 249 251 254 258 263 267 270 272 272 271 271 272 277 283 281 268 258 253 252 253 255 256 255 256 257 256 245 231 225 224 222 219 221 224 227 226 223 219 218 221 222 220 218 219 221 221 223 226 231 233 235 237 239 238 237 239 242 241 238 235 236 241 245 244 244 247 250 251 252 251 249
237 238 242 245 247 251 255 260 264 268 271 272 270 268 267 268 273 274 265 255 251 249 249 247 241 234 234 242 249 243 229 221 221 221 219 219 220 222 220 216 214 215 216 217 218 220 221 220 218 219 222 227 229 229 230 231 229 228 230 234 234 231 228 231 237 242 242 241 242 244 246 247 246 243
234 235 238 241 245 248 252 257 261 264 268 271 270 268 265 263 265 267 262 253 249 249 245 238 236 237 233 230 239 246 238 225 218 216 215 214 212 211 211 211 212 214 215 215 218 223 224 222 221 223 226 229 230 230 229 230 228 224 221 222 223 223 223 228 233 235 235 237 239 241 243 244 242 238
231 233 235 238 242 245 248 253 257 260 265 269 269 268 265 261 260 262 259 252 247 246 241 231 233 242 241 232 231 235 232 224 214 205 202 204 206 206 206 209 213 217 217 216 219 225 226 225 226 229 233 234 233 233 234 237 237 229 223 221 223 225 227 231 235 236 237 239 241 244 246 247 245 242
230 232 234 237 241 243 246 249 253 257 262 265 267 268 265 261 258 257 256 251 245 241 238 233 232 238 241 235 229 222 211 208 206 199 192 193 203 210 212 212 215 219 220 220 222 225 226 227 229 232 235 236 234 234 237 241 242 237 230 225 225 228 233 238 242 243 243 244 246 247 248 248 247 246
228 231 233 237 239 241 242 245 249 254 259 262 265 266 266 264 259 254 252 249 243 237 235 233 231 232 233 226 218 209 200 196 199 202 200 196 201 211 216 214 215 219 222 224 227 230 230 230 231 232 233 234 235 238 242 244 242 239 235 229 225 226 230 236 242 245 246 246 246 247 248 249 249 249
227 229 232 235 237 237 238 241 247 252 256 261 265 267 267 266 262 255 249 245 241 235 231 228 227 229 227 215 207 205 202 195 192 201 207 203 203 208 211 210 212 217 221 225 230 233 234 234 231 230 232 235 239 245 250 248 242 238 237 233 228 226 227 232 239 247 251 252 250 248 248 251 253 253
226 228 231 233 234 233 234 239 245 250 255 260 266 269 269 268 265 258 247 240 238 234 228 223 221 222 221 215 208 206 205 199 197 201 206 206 207 210 210 212 218 223 226 231 236 238 237 234 232 232 235 239 244 248 250 245 239 237 238 235 231 228 230 235 241 249 255 257 255 252 252 255 258 257